Theta_e
350 350 350 353 348 343 341 337 336 339 340 340 340 341 342 343 349 349 351 353 353 353 354 352 352 351 352 352 353 351 352 350 351 351 351 351 350 350 349 349 348 348 349
349 350 349 350 346 347 347 347 346 341 343 340 339 340 340 341 351 352 353 353 353 353 353 353 349 349 350 351 352 352 351 348 349 351 352 351 349 350 350 349 348 349 347
346 348 349 350 348 345 337 339 342 346 345 346 346 346 348 353 350 353 353 353 353 353 352 351 351 352 350 351 352 351 348 349 345 343 344 346 349 350 350 350 349 341 341
347 347 349 350 351 341 336 336 343 349 348 349 350 349 348 350 353 353 353 348 349 346 345 346 350 349 349 349 349 345 343 347 348 343 345 346 350 347 347 348 345 347 346
347 348 349 347 349 342 339 339 342 346 350 351 352 352 350 353 353 350 349 345 347 347 350 347 348 346 341 342 343 344 344 346 346 347 346 339 335 344 343 347 348 347 341
348 351 349 349 353 344 341 339 341 344 349 347 353 354 353 352 351 348 347 347 352 352 347 350 346 344 342 343 342 343 345 346 346 347 347 345 334 336 336 346 345 338 335
349 346 349 350 352 346 341 338 341 343 345 347 350 352 351 352 347 344 339 346 349 348 333 336 339 341 341 339 339 342 345 347 347 347 347 348 341 342 337 336 342 337 331
341 345 349 348 347 347 341 338 342 345 347 346 345 346 349 346 346 341 340 332 344 340 345 345 340 338 337 336 336 339 342 345 348 346 347 348 342 344 350 340 332 334 340
344 347 348 345 349 349 343 342 343 346 340 337 337 338 339 344 345 346 347 343 335 333 338 342 341 342 342 341 339 338 339 342 345 348 347 346 337 338 349 343 336 333 342
347 347 345 346 348 347 343 342 344 344 339 334 335 341 345 343 344 342 341 342 343 343 343 345 344 341 338 339 340 340 340 342 344 345 348 346 333 337 344 345 343 338 333
348 347 345 345 346 339 342 344 345 345 340 335 334 338 347 349 350 349 346 342 343 342 344 343 343 342 339 336 335 337 339 342 342 345 346 347 340 335 335 348 344 343 339
349 348 346 345 345 340 339 345 343 345 343 339 337 338 343 347 350 349 349 347 344 345 344 344 346 346 345 342 340 339 347 346 346 345 346 347 346 338 336 337 339 337 337
348 347 346 345 343 338 334 337 337 337 338 336 333 336 346 349 350 347 347 348 347 345 346 347 345 340 348 348 348 347 347 346 346 345 344 344 348 344 337 338 336 337 336
347 346 345 344 340 339 338 335 333 333 332 330 330 337 345 348 348 348 346 347 347 346 347 348 346 345 344 347 346 347 346 346 346 345 344 344 348 344 344 344 343 337 337
349 349 347 345 343 342 343 344 343 343 341 337 335 337 342 345 348 350 348 348 347 347 348 347 347 347 346 347 346 347 347 347 349 345 344 343 344 346 346 345 343 344 341
351 350 350 347 346 347 348 348 346 345 347 346 346 345 345 346 347 348 345 347 349 348 348 348 348 348 347 346 343 338 346 347 347 348 347 344 344 343 346 346 344 343 345
351 351 350 350 350 349 349 350 350 349 349 350 350 350 350 349 347 347 347 346 347 347 347 347 347 346 347 347 345 344 345 348 347 347 344 345 344 344 343 343 346 345 344
351 351 350 351 351 350 351 351 353 354 352 352 351 349 349 349 349 347 349 348 350 349 348 347 347 347 346 346 346 346 346 346 347 345 340 336 345 342 342 343 343 346 345
350 350 350 351 351 352 352 353 353 351 350 351 350 349 349 348 349 349 349 350 351 350 350 351 350 349 349 346 345 345 345 343 345 346 345 341 342 345 345 343 344 344 344
351 351 349 351 352 353 355 353 354 351 348 349 349 349 348 350 350 351 351 352 352 352 352 351 349 349 349 347 346 346 342 341 343 340 341 343 342 341 340 345 345 346 344
352 352 351 352 353 354 355 352 351 351 349 347 348 349 351 351 350 344 342 351 352 352 353 350 348 348 347 346 344 344 344 341 342 340 342 342 343 343 342 345 344 345 345
353 353 352 352 352 354 351 350 349 351 349 349 349 351 351 351 352 350 349 350 351 353 353 352 349 350 347 347 344 343 339 342 341 342 341 341 343 342 344 343 344 342 345
353 353 353 352 351 351 351 353 353 354 351 352 352 352 354 352 351 352 353 352 351 354 355 354 351 346 347 346 347 345 341 339 341 340 340 341 342 342 341 341 341 341 345
351 352 352 351 352 352 352 353 354 354 353 353 353 352 353 353 353 354 353 337 338 342 344 340 343 344 344 344 342 342 343 343 340 339 339 339 340 341 341 341 341 342 341
350 351 351 351 352 353 353 354 355 355 354 354 354 354 355 355 355 349 338 336 335 336 338 339 337 337 338 339 339 339 338 339 340 340 338 336 337 338 338 338 338 340 341
350 351 352 353 354 354 354 355 355 355 355 355 356 354 353 353 344 337 335 335 336 335 334 334 335 338 337 337 336 337 337 337 337 336 334 333 334 334 336 338 339 338 338
Wind_Speed
11 16 18 20 23 26 28 27 27 27 27 26 25 24 23 21 18 17 16 15 13 13 12 11 11 11 12 13 13 13 13 13 12 12 12 12 12 13 12 11 12 12 12
17 18 19 21 24 25 27 26 25 24 24 23 21 20 19 18 17 15 15 15 14 13 12 12 12 11 12 12 12 13 11 11 9 10 11 9 8 10 10 10 11 11 10
19 18 20 21 21 23 27 25 23 22 21 21 20 19 18 16 16 16 16 14 13 12 10 11 11 11 10 11 11 11 11 12 8 8 10 9 9 7 7 8 9 8 10
21 19 19 20 20 21 22 22 21 19 20 19 18 17 17 17 16 14 12 12 10 10 9 10 10 10 9 10 11 11 10 10 8 6 7 7 8 7 7 7 8 9 9
21 19 18 19 19 19 19 18 18 18 18 17 17 16 15 15 13 12 12 12 12 12 11 10 10 9 10 11 8 7 5 5 4 3 2 3 5 7 8 7 8 7 5
22 20 17 17 16 18 17 16 17 17 16 16 15 15 14 13 11 11 10 13 10 9 10 8 7 8 8 8 6 5 2 1 4 9 10 7 6 7 9 10 9 6 5
22 20 17 16 16 17 17 16 15 15 15 14 14 14 12 11 10 10 11 11 11 8 9 7 7 7 6 5 3 2 2 2 5 7 13 11 9 8 8 9 9 8 7
24 20 19 17 17 16 16 15 14 14 14 13 13 13 10 10 9 10 9 9 8 7 7 5 5 4 3 3 2 1 1 4 4 5 10 15 11 10 10 9 10 10 9
22 21 19 18 15 15 16 14 14 14 13 12 12 12 11 9 8 7 6 6 5 5 4 3 2 1 1 2 2 3 4 4 5 6 9 11 11 11 11 11 11 11 10
21 20 20 17 15 16 15 14 14 14 12 11 11 10 10 8 6 6 4 3 1 0 2 3 5 5 4 4 5 4 4 5 9 9 12 15 12 12 13 13 13 12 12
21 20 20 19 17 17 15 14 14 13 11 9 9 8 7 5 4 3 3 2 2 3 3 3 4 6 8 8 7 6 6 7 8 6 7 14 16 15 15 15 15 15 14
23 23 22 21 19 17 16 14 13 12 10 9 8 6 4 2 2 1 1 3 3 4 4 5 7 9 7 8 8 8 10 8 9 10 12 14 18 17 15 15 16 17 16
25 23 23 22 20 18 17 15 14 12 11 10 7 5 2 2 2 4 5 6 7 7 9 9 9 11 11 9 9 10 11 11 11 10 11 13 14 19 16 15 18 19 18
25 25 24 22 22 19 16 16 14 14 12 12 10 8 8 6 4 5 7 8 10 9 10 12 14 13 12 13 13 14 14 16 14 16 14 12 10 16 16 15 17 19 21
24 23 23 23 22 20 18 15 14 13 13 12 12 11 11 10 10 11 11 11 12 12 13 13 16 17 16 15 13 18 18 16 16 13 15 15 11 17 18 18 18 18 20
23 23 21 22 22 20 18 14 13 12 12 12 12 13 13 16 13 13 13 13 13 13 13 14 16 17 18 18 20 17 18 17 18 17 16 15 16 16 21 23 21 19 20
27 24 23 23 21 20 18 14 13 13 15 15 15 14 17 19 18 17 15 14 14 15 15 16 16 16 16 19 20 19 18 19 19 20 20 18 19 19 20 23 27 23 22
28 27 25 24 23 22 19 15 13 13 14 12 13 8 6 10 17 19 18 14 13 12 15 14 17 20 20 18 18 18 19 21 24 23 22 24 19 19 21 22 25 28 27
33 30 29 27 25 23 22 20 17 13 12 9 8 8 8 8 7 14 21 19 17 18 18 17 19 20 22 20 20 22 24 24 25 25 27 25 20 21 23 24 24 26 30
36 33 32 30 26 23 20 20 20 18 16 15 13 10 10 10 12 13 17 20 21 20 16 16 17 18 18 18 20 22 20 22 25 26 26 25 25 25 26 27 28 29 28
34 36 35 32 30 27 25 23 21 21 17 19 18 14 13 13 11 13 14 14 15 16 16 16 16 16 17 15 16 18 17 21 16 19 20 20 21 18 19 24 28 30 31
39 40 38 35 31 32 27 22 20 17 17 16 16 16 16 16 16 15 14 15 17 18 18 15 13 16 16 13 5 7 4 11 6 14 24 18 15 20 20 23 22 26 25
35 40 42 37 34 33 30 23 19 14 15 15 15 17 15 15 13 13 15 17 18 19 18 13 11 11 12 15 10 5 3 3 13 11 19 18 17 18 24 25 25 25 23
34 41 43 40 37 35 32 28 25 23 20 21 18 17 16 15 17 17 15 8 6 6 5 7 7 8 9 11 14 9 13 17 3 7 8 19 19 19 22 22 22 21 23
32 35 41 41 39 36 35 32 29 26 25 21 18 15 16 16 12 11 7 8 7 6 4 5 8 10 11 12 12 13 13 12 12 5 10 12 22 22 24 27 25 23 25
30 33 37 40 40 38 36 34 32 29 27 23 18 15 10 11 9 7 9 7 6 5 8 9 9 10 10 12 13 14 13 7 8 8 5 14 17 23 22 24 23 26 26
Wind_Direction
122 116 115 113 116 112 109 109 111 115 116 117 119 118 118 117 109 108 110 113 116 117 113 108 102 102 109 111 110 109 114 116 120 120 119 120 124 115 120 124 127 123 125
130 124 123 120 118 112 109 107 107 108 108 112 115 115 112 111 106 104 109 111 112 117 113 106 100 102 108 113 116 113 115 115 116 124 124 125 129 116 124 131 132 135 133
131 131 128 124 122 116 112 109 106 105 107 107 108 110 111 109 106 108 105 108 111 109 109 107 106 107 108 112 115 118 121 122 111 121 126 125 119 149 136 142 141 145 140
133 139 133 131 129 128 121 108 105 108 109 108 106 106 109 108 107 109 110 112 115 111 110 113 113 111 114 114 114 115 121 126 105 110 132 142 138 153 150 157 152 152 153
135 138 138 136 134 132 125 117 104 109 109 109 107 107 107 108 104 103 109 110 110 107 103 109 118 118 118 116 116 118 125 140 169 212 183 201 192 168 163 162 161 172 176
140 138 142 137 134 135 134 125 114 116 114 108 106 104 103 104 102 106 113 118 114 114 116 119 124 125 129 130 125 109 66 300 251 235 237 219 210 182 179 175 184 188 191
145 141 139 139 139 138 139 133 124 120 116 111 106 101 103 105 102 111 121 134 126 127 117 120 127 137 146 143 149 99 76 341 309 229 223 230 222 199 194 189 188 194 187
153 151 148 151 146 144 143 137 129 125 119 116 111 111 111 116 114 116 122 130 138 135 121 125 125 136 155 181 209 263 327 322 323 249 225 226 228 222 209 210 199 195 195
159 158 157 153 146 145 145 141 137 136 131 125 114 109 110 108 108 110 109 110 127 147 157 155 150 157 199 246 221 262 313 313 319 251 235 231 232 226 223 223 214 207 208
165 166 165 159 158 154 153 149 150 149 143 135 120 114 104 107 103 92 88 76 54 160 272 287 291 290 285 281 267 250 264 278 286 275 250 248 242 235 231 228 226 223 217
173 175 174 171 170 169 162 161 159 156 152 147 140 131 124 129 118 87 47 34 360 335 303 301 309 312 298 289 283 292 303 275 290 273 263 256 247 245 240 230 230 231 229
180 182 182 181 182 179 177 170 169 170 171 170 164 156 147 142 247 272 276 310 290 289 281 304 322 303 297 294 293 294 307 296 279 282 288 290 256 248 248 251 245 237 235
184 185 188 187 189 189 187 188 188 188 189 189 193 204 215 261 240 257 272 271 273 276 287 289 302 294 289 291 287 288 300 305 298 291 294 307 269 244 253 258 257 251 242
187 190 191 193 196 198 199 204 207 213 214 218 228 231 237 258 266 268 278 289 289 285 288 283 285 305 272 273 278 279 277 287 288 281 286 296 267 234 247 260 261 258 253
189 192 197 198 202 203 208 216 219 224 225 232 235 234 237 249 257 269 276 286 288 292 297 291 291 294 291 281 290 275 280 286 292 286 286 279 264 249 249 259 257 261 262
195 197 198 201 205 206 211 214 219 226 230 234 237 242 250 259 260 272 275 284 288 290 296 295 299 301 296 281 294 286 285 286 283 280 279 270 260 259 255 254 258 258 258
199 198 199 200 203 207 209 216 231 241 249 250 260 273 273 266 265 263 270 273 294 292 297 294 295 301 302 294 292 292 286 287 284 283 284 277 263 255 255 260 255 255 255
198 201 200 200 203 205 210 213 227 253 240 249 267 248 279 270 258 260 263 272 294 291 312 302 300 300 301 296 298 296 289 286 280 275 294 292 266 263 259 255 253 256 257
202 201 202 203 206 207 214 221 227 221 211 219 213 234 267 288 284 256 255 270 279 285 292 296 301 304 300 297 300 292 285 282 281 280 290 285 275 281 270 263 262 260 258
204 204 203 204 206 205 208 209 214 225 230 234 245 254 267 274 281 272 268 271 275 285 287 299 308 309 305 304 303 300 294 285 287 285 283 285 279 278 279 275 273 271 267
202 204 206 206 209 206 205 211 218 227 235 236 242 256 261 266 280 282 273 275 279 282 290 301 310 314 312 319 315 318 305 299 297 297 295 309 291 283 290 284 275 273 273
199 204 204 206 206 208 214 218 221 231 238 244 244 253 261 267 270 276 285 288 289 288 287 289 302 309 308 319 301 303 315 316 312 324 313 304 293 303 295 305 285 290 280
194 198 204 205 205 206 210 213 216 229 237 247 250 255 267 261 273 272 286 294 292 289 291 291 292 296 301 310 317 284 314 275 324 312 306 298 294 298 297 299 292 288 280
200 199 204 206 208 210 211 211 214 218 219 229 243 257 268 266 264 271 282 298 304 306 304 301 303 304 300 300 316 302 283 288 296 312 326 312 307 306 301 298 297 295 294
199 199 203 208 210 211 209 213 215 224 229 236 248 257 262 254 245 246 259 285 301 309 315 315 309 304 300 300 305 310 312 305 293 270 303 307 303 298 295 296 296 292 287
202 201 201 205 210 211 211 213 218 222 227 232 236 244 244 218 218 243 275 293 301 313 319 320 316 310 307 304 303 305 306 299 296 295 296 303 294 299 294 290 286 287 287